CZ-3B DEB, 40849

Orbit data source: Space-Track

CZ-3B DEB, 40849 is space debris in HEO originally from a launch on Mon, 19 Dec 2011 UTC launched from the Xichang Space Center, China (XSC). Debris objects in space refer to the collection of defunct objects orbiting the Earth. Examples of debris include non-operational satellites, rocket bodies, and fragments generated from explosions, collisions, or faulty payload assembly.

Loading next visibility...
Identifier
40849, 2011-077AE
Orbit
HEO
Country
Flag of CNCN / PRC
Related business
Manufacturer
CALT
Mission
Spacecraft
Bus & Motor
Unknown
Mass
Unknown
Launch date (UTC)
2011-12-19 (14 years ago)
Launch vehicle
Unknown
Launch site
Xichang Space Center, China (XSC)
Object type
Payload
Rocket body
Debris
Shape & HBR
Unknown shape, 0.3 m
Radar Cross Section
Medium (>0.1 m² and <1 m²)

Expand to show TLE details & history
Last TLE update: 13 hours ago

TLE from 13 hours ago
0 CZ-3B DEB
1 40849U 11077AE  25348.25233557  .00000098  00000-0  29183-2 0  9997
2 40849  26.1972  33.8618 7390380 342.5764   1.9516  1.90636146 88413
Epoch: 2025-12-14T06:03Z
TLE epoch observation values (Epoch: 2025-12-14T06:03:21.793Z)
Latitude
0.00025°
Longitude
-140.1545°
Altitude
953.932 km
Speed
9.706 km/s
True Right ascension
02h 15m 25s
True Declination
0° 00' 01"
Sunlit
Object was in full shadow at epoch
Visualization orbit readout
Latitude
Unknown
Longitude
Unknown
Altitude
Unknown
Speed
Unknown
Apparent Right ascension
Unknown
Apparent Declination
Unknown
Sunlit
N/A
Visualization observer readout
Local Sidereal Time
17:53:21
Azimuth
Unknown
Elevation
Unknown
Doppler factor
Unknown
Orbital elements
Apogee altitude
41,407.752 km
Perigee altitude
792.667 km
Semi-major axis
27,478.346 km
Eccentricity
0.73904
Inclination
26.1972°
RAAN
33.8618°
Arg. of periapsis
342.5764°
True anomaly
19.00458°
Mean anomaly
1.9516°
Eccentric anomaly
7.4198°
Mean motion
0.47649 °/min
Orbital period
755.52 mins
BSTAR
0.0029183
Loading maneuver chart data...
Computing Atmospheric mass density...
Loading historical data...
Loading historical data...
Loading historical data...
Loading historical data...
Loading historical data...
Loading historical data...
Loading historical data...

Documentation

Showing up to 5 results
|